This is the latest recevied weather packets stored in our database for station/object W8AN. If no packets are shown the sender has not sent any weather packets the latest 10 day(s).
| Time | Temp. | Humidity | Pressure | Rain* | Wind** | Luminosity | Snow |
|---|---|---|---|---|---|---|---|
| 1777571857 | 11.67° C | 53% | 4269.7 hPa | 0 mm | - | 877 W/m² | - |
| 1777571553 | 11.11° C | 54% | 4269.6 hPa | 0 mm | - | 270 W/m² | - |
| 1777571250 | 11.11° C | 51% | 4269.8 hPa | 0 mm | - | 179 W/m² | - |
| 1777570946 | 12.22° C | 56% | 4269.9 hPa | 0 mm | - | 260 W/m² | - |
| 1777570641 | 11.67° C | 54% | 4269.6 hPa | 0 mm | - | 307 W/m² | - |
| 1777570338 | 11.67° C | 52% | 4269.7 hPa | 0 mm | - | 311 W/m² | - |
| 1777570035 | 11.11° C | 54% | 4269.8 hPa | 0 mm | - | 706 W/m² | - |
| 1777569730 | 11.67° C | 49% | 4270 hPa | 0 mm | - | 312 W/m² | - |
| 1777569425 | 12.22° C | 55% | 4269.9 hPa | 0 mm | - | 645 W/m² | - |
| 1777569123 | 12.22° C | 51% | 4269.9 hPa | 0 mm | - | 343 W/m² | - |
| 1777568820 | 11.67° C | 49% | 4270.1 hPa | 0 mm | - | 837 W/m² | - |
| 1777568517 | 11.11° C | 55% | 4270 hPa | 0 mm | - | 214 W/m² | - |
| 1777568213 | 11.67° C | 54% | 4270.1 hPa | 0 mm | - | 269 W/m² | - |
| 1777567910 | 11.67° C | 58% | 4270.1 hPa | 0 mm | - | 830 W/m² | - |
| 1777567606 | 10° C | 63% | 4270 hPa | 0 mm | - | 145 W/m² | - |
| 1777567304 | 11.11° C | 58% | 4270.2 hPa | 0 mm | - | 170 W/m² | - |
| 1777567002 | 11.11° C | 59% | 4270 hPa | 0 mm | - | 865 W/m² | - |
| 1777566699 | 11.11° C | 60% | 4270 hPa | 0 mm | - | 867 W/m² | - |
| 1777566397 | 11.11° C | 61% | 4269.8 hPa | 0 mm | - | 188 W/m² | - |
| 1777566094 | 10° C | 62% | 4270.1 hPa | 0 mm | - | 912 W/m² | - |
| 1777565789 | 10.56° C | 62% | 4269.9 hPa | 0 mm | - | 176 W/m² | - |
| 1777565486 | 10° C | 63% | 4270 hPa | 0 mm | - | 953 W/m² | - |
| 1777565182 | 10.56° C | 62% | 4270.2 hPa | 0 mm | - | 184 W/m² | - |
| 1777564879 | 11.11° C | 62% | 4270 hPa | 0 mm | - | 224 W/m² | - |
| 1777564579 | 10.56° C | 62% | 4270.1 hPa | 0 mm | - | 680 W/m² | - |
* Rain latest hour (hover to see other rain measurements)
** Current wind speed in m/s (hover to see current wind gust speed)